Tracking 29892 objects as of 21-Nov-2024
HD Live streaming from Space Station
objects crossing your sky now

STARLINK-31673

Track STARLINK-31673 now!
10-day predictions
STARLINK-31673 is classified as:


NORAD ID: 59262
Int'l Code: 2024-050J
Perigee: 481.5 km
Apogee: 483.2 km
Inclination: 53.2 °
Period: 94.1 minutes
Semi major axis: 6853 km
RCS: Unknown
Launch date: March 19, 2024
Source: United States (US)
Launch site: AIR FORCE WESTERN TEST RANGE (AFWTR)
Your satellite tracking list
Your tracking list is empty




NASA's NSSDC Master Catalog

Two Line Element Set (TLE):
1 59262U 24050J   24325.01225561 -.00001274  00000-0 -30896-4 0  9999
2 59262  53.1605 225.8051 0001292 100.9621 259.1525 15.30202768 39030
Source of the keplerian elements: AFSPC